STARLINK-31904, 59657

Orbit data source: Space-Track

STARLINK-31904, 59657 is a payload satellite owned by SpaceX/Seattle (US) in LEO that was launched on Mon, 06 May 2024 UTC via an FALCON 9 launch vehicle from the Air Force Eastern Test Range (AFETR). Payload-class satellites include a variety of spacecraft equipped with specific instruments for various scientific and technological missions. These include communications satellites like Starlink; space stations such as the ISS; scientific satellites like the Hubble; Earth observation satellites from companies like Planet Labs, Umbra, and HawkEye 360; GPS; miniature CubeSats for education and research; and military/defense satellites.

Loading next visibility...
Identifier
59657, 2024-084D
Orbit
LEO
Country
Flag of USUS
Related business
Manufacturer
SpaceX/Seattle
Mission
Operational Commercial Communications
Bus & Motor
STARLINK V2M, Unknown motor
Mass
730 kg wet, ~700 kg dry
Launch date (UTC)
2024-05-06 (2 years ago)
Launch vehicle
FALCON 9
Launch site
Air Force Eastern Test Range (AFETR)
Object type
Payload
Rocket body
Debris
Shape & HBR
Box + 2 Pan, 17.7 m
Radar Cross Section
33.884 m², Large (>1 m²)

Expand to show TLE details & history
Last TLE update: 1 day ago

TLE from 1 day ago
0 STARLINK-31904
1 59657U 24084D   25348.82644502  .00001170  00000-0  52054-4 0  9992
2 59657  43.0003 161.1260 0001204 266.1930  93.8784 15.27564125 91394
Epoch: 2025-12-14T19:50Z
TLE epoch observation values (Epoch: 2025-12-14T19:50:04.849Z)
Latitude
-0.00003°
Longitude
139.87198°
Altitude
482.928 km
Speed
7.626 km/s
True Right ascension
10h 44m 30s
True Declination
0° 00' 00"
Sunlit
Object was in daylight at epoch
Visualization orbit readout
Latitude
Unknown
Longitude
Unknown
Altitude
Unknown
Speed
Unknown
Apparent Right ascension
Unknown
Apparent Declination
Unknown
Sunlit
N/A
Visualization observer readout
Local Sidereal Time
20:31:03
Azimuth
Unknown
Elevation
Unknown
Doppler factor
Unknown
Orbital elements
Apogee altitude
485.868 km
Perigee altitude
484.215 km
Semi-major axis
6,863.179 km
Eccentricity
0.00012
Inclination
43.0003°
RAAN
161.126°
Arg. of periapsis
266.193°
True anomaly
93.89217°
Mean anomaly
93.8784°
Eccentric anomaly
93.88528°
Mean motion
3.81729 °/min
Orbital period
94.31 mins
BSTAR
0.000052054
Loading maneuver chart data...
Computing Atmospheric mass density...
Loading historical data...
Loading historical data...
Loading historical data...
Loading historical data...
Loading historical data...
Loading historical data...
Loading historical data...

Documentation

Showing up to 5 results
|